Location: La Fredeussais
(48.1780°N, 1.3980°W)
Time: 17:02:50
(UTC+00:00)

Cosmos 773 Rocket - Pass Details

Date: 09 May 2021
Orbit: 745 x 777 km, 74.1° (Epoch: 21 June)

Event Time Altitude Azimuth Distance (km) Brightness Sun altitude
Rises 21:28:03 0° 334° (NNW) 3,269 8.9 -15.8°
Reaches altitude 10° 21:30:28 10° 332° (NNW) 2,337 7.8 -16.0°
Maximum altitude 21:35:42 63° 252° (WSW) 869 4.3 -16.6°
Enters shadow 21:38:59 23° 178° (S) 1,611 5.2 -16.9°
